Location: Newark
(12.5331°N, 56.4669°W)
Time: 20:40:03
(UTC+00:00)

LightSail 2 - Pass Details

Date: 29 January 2020
Orbit: 700 x 722 km, 24.0° (Epoch: 19 February)

Event Time Altitude Azimuth Distance (km) Brightness Sun altitude
Rises 23:35:41 0° 286° (WNW) 3,071 9.3 -26.6°
Reaches altitude 10° 23:38:08 10° 283° (WNW) 2,156 8.4 -27.1°
Enters shadow 23:43:01 58° 210° (SSW) 817 5.5 -28.3°
